Regional Weather Roundup
Issued by NWS

Home | Current Version | Previous Version | Text Only | Print | Product List | Glossary Off
Versions: 1 2 3 4 5 6 7 8 9 10 11 12 13 14 15 16 17 18 19 20 21 22 23 24 25 26 27 28 29 30 31 32 33 34 35 36 37 38 39 40 41 42 43 44 45 46 47 48 49 50

000
ASUS45 KPSR 291810
RWRAZ

ARIZONA HOURLY REGIONAL WEATHER ROUNDUP
NATIONAL WEATHER SERVICE PHOENIX AZ
1100 AM MST WED MAR 29 2017

NOTE: FAIR INDICATES FEW OR NO CLOUDS BELOW 12,000 FEET WITH NO
SIGNIFICANT WEATHER AND/OR OBSTRUCTIONS TO VISIBILITY.

AZZ001>003-036-291900-
NORTHWEST ARIZONA

CITY           SKY/WX    TMP DP  RH WIND       PRES   REMARKS
BULLHEAD CITY  MOSUNNY   72  27  18 N26       30.09S
KINGMAN        SUNNY     63   6  10 N13       30.16F
6HR MIN TEMP:  36; 6HR MAX TEMP:  63;

$$

AZZ004>008-015-016-018-291900-
NORTH CENTRAL ARIZONA

CITY           SKY/WX    TMP DP  RH WIND       PRES   REMARKS
GRAND CANYON   SUNNY     53  20  27 NE9       30.19F
6HR MIN TEMP:  21; 6HR MAX TEMP:  54;

WILLIAMS       SUNNY     55  19  24 NE12G18   30.19S
PRESCOTT       SUNNY     58  26  29 NW10      30.15S
6HR MIN TEMP:  37; 6HR MAX TEMP:  59;

FLAGSTAFF      SUNNY     51  20  29 NE22G35   30.16R
6HR MIN TEMP:  31; 6HR MAX TEMP:  51;

PAYSON         SUNNY     59  21  23 N21G29    30.12F
PAGE           SUNNY     59  21  23 MISG      30.15F
6HR MIN TEMP:  44; 6HR MAX TEMP:  59;

$$

AZZ009>014-017-291900-
NORTHEAST ARIZONA

CITY           SKY/WX    TMP DP  RH WIND       PRES   REMARKS
WINSLOW        SUNNY     59  25  27 N14G23    30.13F
6HR MIN TEMP:  37; 6HR MAX TEMP:  59;

SAINT JOHNS    SUNNY     51  33  50 NW15G21   30.09F
6HR MIN TEMP:  37; 6HR MAX TEMP:  52;

WINDOW ROCK    SUNNY     53  27  36 W3        30.07F
6HR MIN TEMP:  37; 6HR MAX TEMP:  53;

SHOW LOW       SUNNY     46  25  42 N17G24    30.13F
$$

AZZ023-291900-
GREATER PHOENIX AREA

CITY           SKY/WX    TMP DP  RH WIND       PRES   REMARKS
PHOENIX        MOSUNNY   74  28  18 W9        29.99F
6HR MIN TEMP:  57; 6HR MAX TEMP:  75;

BUCKEYE        SUNNY     73  25  16 CALM      30.02F
GLENDALE       MOSUNNY   75  28  17 VRB3      30.02F
LUKE AFB       SUNNY     77  29  17 NE12G17   29.99F
6HR MIN TEMP:  54; 6HR MAX TEMP:  77; 6HR PCP: TRACE;

DEER VALLEY    SUNNY     75  26  16 NW9G17    29.99F
6HR MIN TEMP:  54; 6HR MAX TEMP:  75;

SCOTTSDALE     SUNNY     73  27  18 VRB3      30.01F
6HR MIN TEMP:  54; 6HR MAX TEMP:  74;

MESA-FALCON    SUNNY    N/A N/A N/A SW12      29.98S
MESA-GATEWAY   SUNNY     72  32  23 NW9       30.01F
CHANDLER       SUNNY     73  27  17 NW10      30.01S
$$

AZZ027-028-291900-
SOUTHWEST MARICOPA COUNTY AND PINAL COUNTY

CITY           SKY/WX    TMP DP  RH WIND       PRES   REMARKS
CASA GRANDE    NOT AVBL
GILA BEND      SUNNY     72  26  18 VRB5      30.02F
6HR MIN TEMP:  49; 6HR MAX TEMP:  72;

$$

AZZ503-504-507>509-291900-
SOUTHEAST ARIZONA

CITY           SKY/WX    TMP DP  RH WIND       PRES   REMARKS
TUCSON         SUNNY     68  27  21 W5        30.03F
6HR MIN TEMP:  47; 6HR MAX TEMP:  69;

DAVIS-MONTHAN  SUNNY     66  27  23 NW8       30.02F
6HR MIN TEMP:  45; 6HR MAX TEMP:  66;

RYAN FIELD     SUNNY     66  28  24 W6        30.04S
NOGALES        SUNNY     69  23  17 NW10G17   30.04S
6HR MIN TEMP:  37; 6HR MAX TEMP:  69;

SIERRA VISTA   SUNNY     64  20  18 NW16G24   30.07S
6HR MIN TEMP:  42; 6HR MAX TEMP:  64;

DOUGLAS        SUNNY     64  26  23 VRB7      30.04S
6HR MIN TEMP:  39; 6HR MAX TEMP:  65;

SAFFORD        SUNNY     67  28  23 NW15G21   30.00R
6HR MIN TEMP:  49; 6HR MAX TEMP:  68;

$$

AZZ020-021-025-026-031-291900-
SOUTHWEST ARIZONA

CITY           SKY/WX    TMP DP  RH WIND       PRES   REMARKS
YUMA           MOSUNNY   80  25  13 N14       30.04S
6HR MIN TEMP:  62; 6HR MAX TEMP:  80;

$$

CAZ031-033-041-043-047-048-061-291900-
SOUTHERN CALIFORNIA

CITY           SKY/WX    TMP DP  RH WIND       PRES   REMARKS
DOWNTOWN L.A.  SUNNY     75  41  29 CALM      30.04S
6HR MIN TEMP:  56; 6HR MAX TEMP:  77;

L.A. AIRPORT   MOSUNNY   73  52  47 SW5       30.05S
6HR MIN TEMP:  54; 6HR MAX TEMP:  74;

SAN DIEGO      SUNNY     74  39  28 VRB3      30.07R
6HR MIN TEMP:  55; 6HR MAX TEMP:  74;

BURBANK        SUNNY     75  31  19 SE8       30.05S
6HR MIN TEMP:  54; 6HR MAX TEMP:  75;

ONTARIO        MOSUNNY   79  28  15 VRB5      30.06S
6HR MIN TEMP:  50; 6HR MAX TEMP:  79;

RIVERSIDE      SUNNY     79  32  18 S6        30.06S
6HR MIN TEMP:  52; 6HR MAX TEMP:  79;

PALM SPRINGS   SUNNY     83  25  12 SE6       30.08S
6HR MIN TEMP:  63; 6HR MAX TEMP:  83;

EL CENTRO NAS  MOSUNNY   80  23  12 N8        30.07S
6HR MIN TEMP:  49; 6HR MAX TEMP:  80;

IMPERIAL       SUNNY     81  30  15 N13G18    30.05S
6HR MIN TEMP:  51; 6HR MAX TEMP:  81;

BLYTHE         SUNNY     78  24  13 N15       30.07S
6HR MIN TEMP:  63; 6HR MAX TEMP:  78;

NEEDLES        MOSUNNY   75  25  15 NE24G31   30.10S
6HR MIN TEMP:  62; 6HR MAX TEMP:  75;

$$

NVZ020-UTZ003-291900-
SOUTHERN NEVADA-UTAH

CITY           SKY/WX    TMP DP  RH WIND       PRES   REMARKS
LAS VEGAS      PTSUNNY   67  22  18 VRB3      30.16F
6HR MIN TEMP:  52; 6HR MAX TEMP:  68;

SALT LAKE CITY MOSUNNY   51  31  46 NW3       30.25F
6HR MIN TEMP:  36; 6HR MAX TEMP:  51;

$$

NMZ009-TXZ055-291900-
NEW MEXICO-WEST TEXAS

CITY           SKY/WX    TMP DP  RH WIND       PRES   REMARKS
ALBUQUERQUE    PTSUNNY   55  37  50 VRB6      30.01F
6HR MIN TEMP:  42; 6HR MAX TEMP:  55; 6HR PCP: TRACE;

EL PASO        MOSUNNY   60  35  39 N14G23    29.98R
6HR MIN TEMP:  54; 6HR MAX TEMP:  62;

$$


........................KEY........................
SKY/WX - SKY CONDITION/WEATHER
TMP    - TEMPERATURE IN FAHRENHEIT
DP     - DEW POINT IN FAHRENHEIT
RH     - RELATIVE HUMIDITY IN PERCENT
WIND   - DIRECTION AND SPEED IN MILES PER HOUR (MPH)
VRB    - VARIABLE WIND DIRECTION
PRES   - MEAN SEA LEVEL PRESSURE IN INCHES OF MERCURY
         F - FALLING PRESSURE   R - RISING PRESSURE
         S - STEADY PRESSURE
VSB    - VISIBILITY IN MILES
HX     - HEAT INDEX IN FAHRENHEIT
WCI    - WIND CHILL INDEX IN FAHRENHEIT
TC     - TEMPERATURE IN CELSIUS WHICH IS ALSO KNOWN AS
         TEMPERATURE IN CENTIGRADE
AFB    - AIR FORCE BASE
         LUKE AFB IS LUKE AIR FORCE BASE
         DAVIS-MONTHAN IS DAVIS-MONTHAN AIR FORCE BASE
NAS    - NAVAL AIR STATION
         EL CENTRO NAS IS EL CENTRO NAVAL AIR STATION
N/A    - NOT AVAILABLE




USA.gov is the U.S. government's official web portal to all federal, state and local government web resources and services.